www.pogodaiklimat.ru

Погода и климат >> Архив погоды >> Индия >> Бихар >> Бхагалпур


ПОГОДА в Бхагалпуре

  • Прогноз погоды в Бхагалпуре
  • Монитор погоды в Бхагалпуре

АРХИВ ПОГОДЫ в Бхагалпуре

Время (UTC), дата Ветер
(напр.,м/с)
 
Видим.   Явления Облачность Т
(С)
Тd
(С)
f
(%)
Тe
(С)
Тes
(С)
Комфортность P
(гПа)
Po
(гПа)
Тmin
(С)
Tmax
(С)
R
(мм)
R24
(мм)
S
(см)
12 14.05 ЮВ 2 2000 м гроза без осадков 9/6 540 м
[Cb calv Ac trans]
+29.0 +24.1 75 +40 +41 очень
душно
1004.1 998.6 +38.2 1
15 14.05 штиль 0 2000 м мгла {гроза, дождь} 9/6 540 м
[Cb calv Ac trans]
+28.6 +23.4 73 +39 +39 очень
душно
1005.4 999.8 1
18 14.05 штиль 0 1000 м дымка {гроза, дождь} 9/6 540 м
[Cb calv Ac trans]
+27.6 +22.9 76 +37 +37 очень
душно
1005.8 1000.2 1
21 14.05 штиль 0 1000 м дымка 10/6 540 м
[Cb calv Ac trans]
+27.0 +22.6 77 +36 +36 очень
душно
1005.0 999.4 1
00 15.05 штиль 0 1000 м дымка 5/3 600 м
[Sc Ac trans]
+25.6 +22.3 82 +33 +34 очень
душно
1005.1 999.5 1
03 15.05 СВ 1 2000 м мгла 9/6 540 м
[Cb calv Ac trans]
+29.0 +22.2 67 +38 +41 очень
душно
1002.5 997.0 +24.4 1
06 15.05 СВ 1 2000 м мгла 5/3 600 м
[Sc Ac trans]
+35.6 +24.6 53 +48 +63 опасность
перегрева
1006.8 1001.4
09 15.05 Ю 1 2000 м мгла 3/3 600 м
[Sc]
+38.2 +25.4 48 +52 +63 опасность
перегрева
1004.9 999.5
12 15.05 Ю 2 2000 м мгла 9/8 540 м
[Cb calv Ac As]
+34.0 +22.4 51 +43 +43 опасность
перегрева
1003.7 998.2 +38.2
15 15.05 СВ 1 2000 м мгла 4/3 600 м
[Sc Ac trans]
+29.6 +22.6 66 +39 +39 очень
душно
1005.7 1000.2
18 15.05 штиль 0 2000 м мгла 6/4 600 м
[Sc Ac trans]
+28.8 +22.6 69 +38 +38 очень
душно
1007.4 1001.8
21 15.05 штиль 0 1000 м дымка 8/4 600 м
[Sc Ac trans]
+27.0 +22.6 77 +36 +36 очень
душно
1006.8 1001.2
00 16.05 штиль 0 1000 м дымка 6/3 600 м
[Sc Ac trans]
+26.0 +21.8 78 +33 +34 очень
душно
1006.3 1000.7
03 16.05 В 2 2000 м мгла 5/3 600 м
[Sc Ac trans]
+29.6 +23.8 71 +41 +48 опасность
перегрева
1009.1 1003.5 +24.6
06 16.05 СВ 1 2000 м мгла ясно +35.4 +26.6 61 +53 +78 опасность
перегрева
1007.3 1001.8
09 16.05 СВ 1 2000 м мгла 4/4 600 м
[Sc diur, vesp]
+37.4 +26.1 53 +53 +63 опасность
перегрева
1004.9 999.5
12 16.05 штиль 0 2000 м мгла ясно +36.4 +25.5 54 +51 +52 опасность
перегрева
1004.0 998.6 +38.4
15 16.05 В 1 2000 м мгла ясно +31.4 +25.8 72 +46 +46 опасность
перегрева
1005.7 1000.2
18 16.05 штиль 0 1000 м дымка 5/3 600 м
[Sc Ac trans]
+30.0 +25.8 78 +45 +45 опасность
перегрева
1007.1 1001.6
21 16.05 штиль 0 1000 м дымка 6/3 600 м
[Sc Ac trans]
+28.4 +24.9 81 +41 +41 опасность
перегрева
1006.6 1001.0
00 17.05 штиль 0 1000 м дымка 5/3 600 м
[Sc Ac trans]
+28.0 +25.2 85 +41 +41 опасность
перегрева
1005.2 999.6
03 17.05 З 1 2000 м дымка 4/3 600 м
[Sc Ac trans]
+31.4 +27.3 79 +50 +58 опасность
перегрева
1005.0 999.5 +26.5
06 17.05 СЗ 1 2000 м мгла 4/0
[Ac trans]
+38.0 +27.5 55 +56 +76 опасность
перегрева
1005.0 999.6
09 17.05 З 2 4000 м мгла ясно +41.0 +22.8 36 +50 +65 опасность
перегрева
1002.4 997.1
12 17.05 СЗ 1 2000 м мгла ясно +38.8 +24.1 43 +50 +51 опасность
перегрева
1001.4 996.0 +41.2
15 17.05 СВ 1 2000 м мгла 4/3 600 м
[Sc Ac trans]
+33.6 +27.9 72 +54 +54 опасность
перегрева
1002.6 997.1
18 17.05 штиль 0 2000 м дымка 4/0
[Ac trans]
+32.0 +27.9 79 +52 +52 опасность
перегрева
1002.9 997.4
21 17.05 штиль 0 2000 м дымка 4/0
[Ac trans]
+30.6 +27.0 81 +48 +48 опасность
перегрева
1002.2 996.7
00 18.05 СВ 1 2000 м дымка ясно +26.0 +23.1 84 +35 +35 очень
душно
1003.4 997.8
03 18.05 штиль 0 2000 м дымка ясно +29.0 +25.0 79 +42 +57 опасность
перегрева
1005.1 999.5 +24.7
06 18.05 СВ 1 2000 м мгла ясно +38.2 +23.8 44 +49 +75 опасность
перегрева
1004.9 999.5
09 18.05 ЮВ 1 2000 м мгла 4/3 600 м
[Sc Ac trans]
+41.4 +23.3 36 +51 +61 опасность
перегрева
1002.5 997.2
12 18.05 штиль 0 2000 м мгла 8/4 600 м
[Sc Ac trans]
+39.0 +26.0 48 +54 +54 опасность
перегрева
1001.4 996.0 +41.4
15 18.05 штиль 0 2000 м мгла 5/3 600 м
[Sc Ac trans]
+33.6 +25.8 64 +49 +49 опасность
перегрева
1003.6 998.1
18 18.05 штиль 0 2000 м мгла 5/3 600 м
[Sc Ac trans]
+32.0 +24.9 66 +45 +45 опасность
перегрева
1005.1 999.6
21 18.05 штиль 0 2000 м мгла 6/3 600 м
[Sc Ac trans]
+30.4 +23.8 68 +42 +42 опасность
перегрева
1004.4 998.9
00 19.05 штиль 0 1000 м дымка 4/1 600 м
[Sc Ac trans]
+28.0 +24.9 83 +40 +40 очень
душно
1005.2 999.6
03 19.05 СВ 1 2000 м мгла ясно +30.0 +24.6 73 +43 +56 опасность
перегрева
1006.9 1001.4 +26.6
06 19.05 СВ 2 2000 м ясно +38.6 +21.8 38 +46 +68 опасность
перегрева
1007.0 1001.6
09 19.05 З 2 2000 м 5/3 600 м
[Sc Ac trans]
+41.0 +20.5 31 +47 +55 опасность
перегрева
1003.6 998.3
12 19.05 штиль 0 2000 м 5/3 600 м
[Sc Ac trans]
+39.0 +21.6 37 +46 +47 опасность
перегрева
1004.2 998.8 +41.6
15 19.05 штиль 0 2000 м мгла ясно +33.0 +22.2 53 +42 +42 опасность
перегрева
1006.0 1000.5
18 19.05 штиль 0 2000 м мгла ясно +30.2 +22.9 65 +40 +40 очень
душно
1006.9 1001.4
21 19.05 штиль 0 2000 м мгла ясно +28.8 +21.7 66 +37 +37 очень
душно
1006.3 1000.7
00 20.05 штиль 0 1000 м мгла 3/3 600 м
[Sc]
+27.4 +21.7 71 +35 +35 очень
душно
1006.3 1000.7
03 20.05 штиль 0 2000 м мгла ясно +30.6 +22.4 62 +40 +55 опасность
солнечного
удара
1008.6 1003.1 +26.0
06 20.05 штиль 0 2000 м мгла 4/4 600 м
[Sc diur, vesp]
+40.0 +22.2 36 +48 +66 опасность
перегрева
1006.6 1001.2
09 20.05 СЗ 1 2000 м мгла 5/5 600 м
[Sc diur, vesp]
+41.6 +22.1 33 +49 +58 опасность
перегрева
1004.4 999.1
12 20.05 СЗ 2 2000 м мгла 8/5 600 м
[Cb calv Ac trans]
+38.6 +25.2 47 +52 +52 опасность
перегрева
1003.4 998.0 +41.6
15 20.05 СЗ 2 2000 м мгла 5/3 600 м
[Sc Ac trans]
+33.6 +22.6 53 +43 +43 опасность
перегрева
1006.0 1000.5
18 20.05 СЗ 2 2000 м мгла 5/3 600 м
[Sc Ac trans]
+31.0 +22.9 62 +41 +41 опасность
перегрева
1007.2 1001.7
21 20.05 штиль 0 2000 м мгла 6/3 600 м
[Sc Ac trans]
+29.6 +22.2 64 +38 +38 очень
душно
1006.5 1000.9
00 21.05 штиль 0 2000 м мгла 4/1 600 м
[Sc Ac trans]
+28.0 +23.0 74 +37 +38 очень
душно
1006.1 1000.5
03 21.05 ЮВ 1 2000 м мгла ясно +31.0 +25.4 72 +45 +59 опасность
перегрева
1007.2 1001.7 +26.0
06 21.05 штиль 0 2000 м мгла ясно +37.0 +26.9 56 +54 +84 опасность
перегрева
1006.7 1001.3
09 21.05 СВ 1 4000 м мгла ясно +39.4 +26.9 50 +57 +72 опасность
перегрева
1006.7 1001.3

 

Местоположение метеостанции Бхагалпур (Бихар, Индия): широта 25.23 долгота 86.95 высота над уровнем моря 49 м.

В архиве по умолчанию представлена погода в Бхагалпуре за последнюю неделю. Архивные данные за месяц целиком и за предыдущие месяцы, начиная с января 2011 года, Вы можете получить, выбрав интересующий диапазон дат из раскрывающегося списка и нажав кнопку "Ввод!".


*Определитесь, кто Вы:
робот инопланетянин человек

Внимание! Время в таблицах - всемирное. Для получения местного времени необходимо прибавить поправку, которая равна 5.5 ч.

Смотрите также архив погоды в соседних городах и на ближайших метеорологических станциях:

Погода в Пурнеа (Бихар, Индия) (53 км)
Погода в Малда (Западная Бенгалия, Индия) (121 км)
Погода в Биратнагаре (Непал) (142 км)
Погода в Бадалхачги (Бангладеш) (156 км)
Погода в Асансоле (Западная Бенгалия, Индия) (172 км)
Погода в Динаджпуре (Бангладеш) (180 км)
Погода в Бахарампуре (Западная Бенгалия, Индия) (181 км)
Погода в Балургхате (Западная Бенгалия, Индия) (184 км)
Погода в Димле (Бангладеш) (187 км)
Погода в Патне (Бихар, Индия) (190 км)

Пояснения к столбцам:

Ветер - указаны скорость ветра в м/с - средняя за 10 мин, порывы в срок и между сроками (в фигурных скобках) и направление, откуда дует ветер: С - северный, СВ - северо-восточный, В - восточный, ЮВ - юго-восточный, Ю - южный, ЮЗ - юго-западный, З - западный, СЗ - северо-западный.
Видимость - горизонтальная дальность видимости в метрах или километрах. При видимости от 1 до 10 км при отсутствии осадков обычно наблюдается дымка, при ухудшении видимости до 1 км и менее - туман. В сухую погоду видимость может ухудшаться дымом, пылью или мглою.
Явления - указаны атмосферные явления, наблюдавшиеся в срок или в последний час перед сроком; фигурными скобками обозначены явления, наблюдавшиеся между сроками (за 1-3 часа до срока); квадратными скобками обозначены град или гололедные отложения с указанием их диаметра в мм.
Облачность - указаны через наклонную черту общая и нижняя облачность в баллах и высота нижней границы облаков в метрах; квадратными скобками обозначены формы облаков: Ci - перистые, Cs - перисто-слоистые, Cc - перисто-кучевые, Ac - высококучевые, As - высокослоистые, Sc - слоисто-кучевые, Ns - слоисто-дождевые, Cu - кучевые, Cb - кучево-дождевые. Подробнее классификацию облаков см. в Атласе облаков (PDF).
T - Температура воздуха - температура, измеренная на высоте 2 м над землей.
Td - Температура точки росы - температура, при понижении до которой содержащийся в воздухе водяной пар достигнет насыщения.
f - Относительная влажность воздуха - влажноcть воздуха, измеренная на высоте 2 м над землей.
Te - Эффективная температура - температура, которую ощущает одетый по сезону человек в тени. Характеристика душности погоды. При расчете учитывается влияние влажности воздуха и скорости ветра на теплоощущения человека.
Tes - Эффективная температура на солнце - температура, которую ощущает человек, с поправкой на солнечный нагрев. Характеристика знойности погоды. Зависит от высоты солнца над горизонтом, облачности и скорости ветра. Ночью, в пасмурную погоду, а также при ветре 12 м/с и более поправка равна нулю.
P - Атмосферное давление - приведенное к уровню моря атмосферное давление.
Po - Атмосферное давление - измеренное на уровне метеостанции атмосферное давление.
Tmin - Минимальная температура - минимум температуры воздуха на высоте 2 м над землей.
Tmax - Максимальная температура - максимум температуры воздуха на высоте 2 м над землей.
R - Количество осадков - Количество выпавших осадков за период времени, мм. При наведении курсора мыши на число - период времени, за который выпало указанное количество осадков.
R24 - Количество осадков - Количество выпавших осадков за 24 часа, мм.
S - Снежный покров - Высота снежного покрова, см. При наведении курсора мыши на число - состояние снежного покрова и степень покрытия местности в баллах.